Погода в Врбно-Под-Прадедем

Чехия     50°07′15″N   17°22′55″E
В апреле 2022 года жителям России запретили посещать сайт meteo.paraplan.net по решению Генеральной прокуратуры. Аудитория сайта уменьшилась в 10 раз. Владельцы сайта не видят смысла в поддержке погодного сервера в таких условиях. Сайт будет закрыт в октябре.
темп.,
°C
ветер,
м/с
пор.,
м/с
влажн.,
%
обл.,
%
осадки,
мм/ч
давл.,
гПа
погр.,
м
30 сентября, пт
пт3023:00+6с2283100 0.0 100834
02:00+7ссв1283100 0.0 100973
05:00+7ссв2586100 0.1 1009189
08:00+7с3696100 1.1 1010268
11:00+7с3692100 0.8 1012281
14:00+8с2489100 1.4 1013217
17:00+8юв019099 0.0 101480
20:00+6юз2294100 0.0 101527
1 октября, сб
сб123:00+6з2394100 0.0 101556
02:00+6юз239298 0.0 101555
05:00+5зюз359613 0.0 101597
08:00+6зюз35905 0.0 1015117
11:00+11юз5775100 0.0 1014498
14:00+12юз6873100 0.0 1012899
17:00+12юз61171100 0.0 1011915
20:00+8зюз61286100 0.8 10121044
2 октября, вс
вс223:00+8зюз51191100 0.1 1013917
02:00+9зюз499099 0.1 1014628
05:00+9з498767 0.1 1014786
08:00+9з6118326 0.1 1016846
11:00+12з611664 0.0 10171252
14:00+13зсз711628 0.1 10171447
17:00+11з6117646 0.1 10171072
20:00+9з4108230 0.1 1019396
3 октября, пн
пн323:00+7з349266 0.0 102070
02:00+7зюз238842 0.0 102077
05:00+6з229287 0.0 102030
08:00+7зюз228840 0.0 102080
11:00+12з236154 0.0 10201182
14:00+14ссз1254100 0.0 10191225
17:00+12ю1368100 0.0 1019285
20:00+10з017686 0.0 102028
4 октября, вт
вт423:00+7сз11887 0.0 102121
02:00+6з228927 0.0 102128
05:00+7зюз2284100 0.0 102050
08:00+7зюз2383100 0.0 102097
11:00+12з2364100 0.0 1020857
14:00+14юз1357100 0.0 10191196
17:00+13всв126882 0.0 1019291
20:00+9в018391 0.0 102112